When you browse on this site, cookies collect data to enhance your experience and personalize the content and advertising you see.
Visit our Privacy Policy to learn more. By continuing to use the site, you agree to this use of cookies and data.
  • In Hungary
  • List of Countries
  • For 7 days
  • Water Temperature
  • Weather Map
  • News
  • Weather Widgets
  • user-avatar
    Login

    Hourly Weather Kabwe

    Today, 4 June, Thursday

    Time Temperature Precipitation Wind Pressure Humidity
    00:00 +14°C° 0 mm 2 mps 663 mmHg 90%
    01:00 +14°C° 0 mm 2 mps 663 mmHg 93%
    02:00 +13°C° 0 mm 2 mps 662 mmHg 95%
    03:00 +13°C° 0 mm 2 mps 662 mmHg 95%
    04:00 +13°C° 0 mm 2 mps 662 mmHg 96%
    05:00 +12°C° 0 mm 2 mps 662 mmHg 96%
    06:00 +14°C° 0 mm 2 mps 663 mmHg 90%
    07:00 +14°C° 0 mm 3 mps 664 mmHg 84%
    08:00 +17°C° 0 mm 3 mps 665 mmHg 77%
    09:00 +19°C° 0 mm 3 mps 665 mmHg 66%
    10:00 +22°C° 0 mm 3 mps 666 mmHg 55%
    11:00 +26°C° 0 mm 3 mps 666 mmHg 44%
    12:00 +27°C° 0 mm 3 mps 666 mmHg 41%
    13:00 +27°C° 0 mm 2 mps 665 mmHg 38%
    14:00 +28°C° 0 mm 2 mps 665 mmHg 35%
    15:00 +27°C° 0 mm 2 mps 664 mmHg 37%
    16:00 +26°C° 0 mm 3 mps 664 mmHg 40%
    17:00 +25°C° 0 mm 3 mps 664 mmHg 43%
    18:00 +22°C° 0 mm 3 mps 664 mmHg 52%
    19:00 +20°C° 0 mm 3 mps 664 mmHg 60%
    20:00 +17°C° 0 mm 3 mps 664 mmHg 69%
    21:00 +16°C° 0 mm 2 mps 664 mmHg 77%
    22:00 +16°C° 0 mm 2 mps 664 mmHg 85%
    23:00 +15°C° 0 mm 2 mps 664 mmHg 93%

    Tomorrow, 5 June, Friday

    Time Temperature Precipitation Wind Pressure Humidity
    00:00 +15°C° 0 mm 2 mps 663 mmHg 94%
    01:00 +14°C° 0 mm 2 mps 663 mmHg 96%
    02:00 +14°C° 0 mm 2 mps 663 mmHg 97%
    03:00 +14°C° 0 mm 2 mps 663 mmHg 97%
    04:00 +14°C° 0 mm 2 mps 663 mmHg 97%
    05:00 +13°C° 0 mm 2 mps 663 mmHg 97%
    06:00 +14°C° 0 mm 2 mps 664 mmHg 92%
    07:00 +16°C° 0 mm 3 mps 665 mmHg 87%
    08:00 +17°C° 0 mm 3 mps 665 mmHg 82%
    09:00 +19°C° 0 mm 3 mps 666 mmHg 70%
    10:00 +22°C° 0 mm 3 mps 666 mmHg 58%
    11:00 +26°C° 0 mm 3 mps 667 mmHg 46%
    12:00 +27°C° 0 mm 3 mps 666 mmHg 41%
    13:00 +28°C° 0 mm 2 mps 666 mmHg 36%
    14:00 +29°C° 0 mm 2 mps 665 mmHg 31%
    15:00 +28°C° 0 mm 2 mps 665 mmHg 34%
    16:00 +27°C° 0 mm 2 mps 664 mmHg 37%
    17:00 +26°C° 0 mm 3 mps 664 mmHg 39%
    18:00 +24°C° 0 mm 3 mps 664 mmHg 46%
    19:00 +21°C° 0 mm 3 mps 664 mmHg 53%
    20:00 +20°C° 0 mm 3 mps 664 mmHg 59%
    21:00 +18°C° 0 mm 3 mps 664 mmHg 66%
    22:00 +17°C° 0 mm 2 mps 664 mmHg 73%
    23:00 +16°C° 0 mm 2 mps 664 mmHg 80%

    Day after tomorrow, 6 June, Saturday

    Time Temperature Precipitation Wind Pressure Humidity
    00:00 +15°C° 0 mm 2 mps 663 mmHg 83%
    01:00 +14°C° 0 mm 2 mps 663 mmHg 86%
    02:00 +14°C° 0 mm 1 mps 663 mmHg 89%
    03:00 +13°C° 0 mm 1 mps 663 mmHg 90%
    04:00 +13°C° 0 mm 2 mps 663 mmHg 92%
    05:00 +13°C° 0 mm 2 mps 663 mmHg 94%
    06:00 +14°C° 0 mm 2 mps 664 mmHg 87%
    07:00 +14°C° 0 mm 3 mps 664 mmHg 81%
    08:00 +15°C° 0 mm 4 mps 665 mmHg 75%
    09:00 +19°C° 0 mm 4 mps 666 mmHg 64%
    10:00 +22°C° 0 mm 3 mps 666 mmHg 53%
    11:00 +25°C° 0 mm 3 mps 666 mmHg 42%
    12:00 +26°C° 0 mm 3 mps 666 mmHg 37%
    13:00 +27°C° 0 mm 3 mps 666 mmHg 33%
    14:00 +28°C° 0 mm 2 mps 665 mmHg 28%
    15:00 +27°C° 0 mm 2 mps 665 mmHg 31%
    16:00 +26°C° 0 mm 2 mps 664 mmHg 33%
    17:00 +25°C° 0 mm 2 mps 664 mmHg 35%
    18:00 +23°C° 0 mm 2 mps 664 mmHg 39%
    19:00 +21°C° 0 mm 3 mps 664 mmHg 42%
    20:00 +20°C° 0 mm 3 mps 665 mmHg 45%
    21:00 +18°C° 0 mm 3 mps 664 mmHg 52%
    22:00 +17°C° 0 mm 2 mps 664 mmHg 58%
    23:00 +15°C° 0 mm 2 mps 663 mmHg 64%

    7 June, Sunday

    Time Temperature Precipitation Wind Pressure Humidity
    00:00 +14°C° 0 mm 2 mps 663 mmHg 67%
    01:00 +14°C° 0 mm 1 mps 663 mmHg 70%
    02:00 +13°C° 0 mm 1 mps 663 mmHg 73%
    03:00 +13°C° 0 mm 1 mps 663 mmHg 76%
    04:00 +12°C° 0 mm 1 mps 663 mmHg 78%
    05:00 +12°C° 0 mm 1 mps 663 mmHg 80%
    06:00 +13°C° 0 mm 2 mps 663 mmHg 75%
    07:00 +14°C° 0 mm 3 mps 664 mmHg 70%
    08:00 +15°C° 0 mm 4 mps 665 mmHg 65%
    09:00 +19°C° 0 mm 4 mps 665 mmHg 56%
    10:00 +21°C° 0 mm 4 mps 666 mmHg 48%
    11:00 +23°C° 0 mm 4 mps 666 mmHg 39%
    12:00 +25°C° 0 mm 3 mps 666 mmHg 35%
    13:00 +26°C° 0 mm 3 mps 666 mmHg 31%
    14:00 +27°C° 0 mm 3 mps 665 mmHg 27%
    15:00 +26°C° 0 mm 3 mps 665 mmHg 30%
    16:00 +25°C° 0 mm 3 mps 664 mmHg 33%
    17:00 +24°C° 0 mm 3 mps 664 mmHg 35%
    18:00 +21°C° 0 mm 3 mps 664 mmHg 43%
    19:00 +18°C° 0 mm 3 mps 664 mmHg 51%
    20:00 +16°C° 0 mm 2 mps 664 mmHg 59%
    21:00 +15°C° 0 mm 2 mps 664 mmHg 62%
    22:00 +14°C° 0 mm 2 mps 663 mmHg 65%
    23:00 +14°C° 0 mm 2 mps 663 mmHg 68%

    8 June, Monday

    Time Temperature Precipitation Wind Pressure Humidity
    00:00 +13°C° 0 mm 2 mps 663 mmHg 70%
    01:00 +13°C° 0 mm 1 mps 663 mmHg 71%
    02:00 +12°C° 0 mm 1 mps 662 mmHg 73%
    03:00 +12°C° 0 mm 1 mps 662 mmHg 75%
    04:00 +11°C° 0 mm 1 mps 662 mmHg 78%
    05:00 +11°C° 0 mm 1 mps 662 mmHg 80%
    06:00 +13°C° 0 mm 2 mps 663 mmHg 74%
    07:00 +13°C° 0 mm 3 mps 664 mmHg 68%
    08:00 +15°C° 0 mm 4 mps 664 mmHg 62%
    09:00 +18°C° 0 mm 4 mps 665 mmHg 55%
    10:00 +20°C° 0 mm 4 mps 665 mmHg 47%
    11:00 +22°C° 0 mm 4 mps 665 mmHg 40%
    12:00 +23°C° 0 mm 4 mps 665 mmHg 37%
    13:00 +25°C° 0 mm 4 mps 664 mmHg 33%
    14:00 +26°C° 0 mm 3 mps 664 mmHg 30%
    15:00 +25°C° 0 mm 3 mps 664 mmHg 31%
    16:00 +24°C° 0 mm 3 mps 663 mmHg 33%
    17:00 +22°C° 0 mm 3 mps 663 mmHg 34%
    18:00 +20°C° 0 mm 3 mps 663 mmHg 41%
    19:00 +18°C° 0 mm 3 mps 663 mmHg 48%
    20:00 +15°C° 0 mm 2 mps 662 mmHg 55%
    21:00 +15°C° 0 mm 2 mps 662 mmHg 62%
    22:00 +14°C° 0 mm 2 mps 662 mmHg 68%
    23:00 +13°C° 0 mm 2 mps 663 mmHg 74%

    9 June, Tuesday

    Time Temperature Precipitation Wind Pressure Humidity
    00:00 +13°C° 0 mm 2 mps 662 mmHg 76%
    01:00 +13°C° 0 mm 2 mps 662 mmHg 77%
    02:00 +12°C° 0 mm 2 mps 662 mmHg 79%
    03:00 +12°C° 0 mm 2 mps 662 mmHg 82%
    04:00 +10°C° 0 mm 2 mps 662 mmHg 85%
    05:00 +9°C° 0 mm 2 mps 661 mmHg 88%
    06:00 +11°C° 0 mm 3 mps 662 mmHg 80%
    07:00 +13°C° 0 mm 3 mps 663 mmHg 73%
    08:00 +14°C° 0 mm 4 mps 664 mmHg 65%
    09:00 +18°C° 0 mm 4 mps 664 mmHg 56%
    10:00 +20°C° 0 mm 4 mps 665 mmHg 47%
    11:00 +23°C° 0 mm 4 mps 665 mmHg 38%
    12:00 +25°C° 0 mm 4 mps 665 mmHg 35%
    13:00 +25°C° 0 mm 4 mps 664 mmHg 33%
    14:00 +26°C° 0 mm 4 mps 664 mmHg 31%
    15:00 +25°C° 0 mm 4 mps 663 mmHg 33%
    16:00 +25°C° 0 mm 3 mps 663 mmHg 34%
    17:00 +24°C° 0 mm 3 mps 662 mmHg 36%
    18:00 +20°C° 0 mm 3 mps 662 mmHg 43%
    19:00 +18°C° 0 mm 2 mps 662 mmHg 51%
    20:00 +15°C° 0 mm 2 mps 662 mmHg 58%
    21:00 +14°C° 0 mm 2 mps 662 mmHg 63%
    22:00 +14°C° 0 mm 2 mps 662 mmHg 67%
    23:00 +13°C° 0 mm 2 mps 662 mmHg 72%
    Show more